QPF
0.03 0.06 0.08 0.07 0.06 0.09 0.13 0.17 0.21 0.25 0.31 0.43 0.57 0.63 0.63 0.53 0.37 0.24 0.16 0.12 0.07 0.09 0.16 0.11 0.10 0.08 0.12 0.12 0.06 0.07 0.10 0.10 0.02 0.00 0.00 0.00 0.00 0.00 0.00 0.00 0.00 0.00 0.00
0.07 0.09 0.09 0.08 0.08 0.18 0.26 0.24 0.21 0.22 0.28 0.48 0.72 0.90 0.95 0.80 0.51 0.28 0.16 0.11 0.08 0.11 0.14 0.16 0.12 0.10 0.13 0.17 0.17 0.14 0.13 0.11 0.04 0.01 0.00 0.00 0.00 0.00 0.00 0.00 0.00 0.00 0.00
0.04 0.03 0.02 0.02 0.04 0.10 0.11 0.10 0.08 0.07 0.07 0.14 0.30 0.45 0.63 0.68 0.46 0.23 0.12 0.06 0.04 0.05 0.10 0.16 0.17 0.14 0.16 0.27 0.38 0.30 0.22 0.16 0.11 0.06 0.03 0.01 0.01 0.00 0.00 0.00 0.00 0.00 0.00
0.01 0.01 0.01 0.01 0.01 0.01 0.01 0.02 0.02 0.02 0.01 0.02 0.07 0.25 0.46 0.46 0.32 0.16 0.08 0.05 0.03 0.04 0.11 0.17 0.17 0.20 0.26 0.35 0.40 0.32 0.28 0.22 0.18 0.13 0.08 0.04 0.02 0.01 0.00 0.00 0.00 0.00 0.00
0.01 0.01 0.00 0.00 0.00 0.00 0.01 0.01 0.01 0.01 0.00 0.01 0.01 0.12 0.50 0.55 0.36 0.23 0.15 0.09 0.08 0.09 0.14 0.17 0.18 0.20 0.24 0.31 0.32 0.35 0.30 0.24 0.20 0.14 0.08 0.05 0.04 0.02 0.01 0.00 0.00 0.00 0.00
0.01 0.01 0.00 0.00 0.00 0.01 0.01 0.01 0.01 0.01 0.01 0.00 0.01 0.04 0.24 0.37 0.34 0.30 0.25 0.18 0.14 0.14 0.18 0.18 0.18 0.18 0.22 0.29 0.29 0.26 0.23 0.21 0.18 0.12 0.05 0.04 0.03 0.02 0.02 0.01 0.01 0.01 0.00
0.00 0.01 0.01 0.00 0.00 0.00 0.01 0.01 0.00 0.00 0.00 0.00 0.01 0.02 0.11 0.24 0.29 0.28 0.25 0.22 0.15 0.11 0.12 0.16 0.15 0.14 0.17 0.25 0.25 0.21 0.17 0.13 0.11 0.06 0.02 0.01 0.01 0.01 0.01 0.01 0.00 0.01 0.00
0.01 0.01 0.01 0.01 0.01 0.01 0.01 0.00 0.00 0.01 0.01 0.01 0.04 0.04 0.09 0.19 0.27 0.30 0.28 0.25 0.18 0.11 0.08 0.07 0.08 0.09 0.10 0.14 0.19 0.20 0.17 0.12 0.09 0.03 0.02 0.01 0.01 0.01 0.01 0.02 0.04 0.05 0.04
0.00 0.00 0.00 0.00 0.00 0.01 0.01 0.02 0.04 0.06 0.06 0.07 0.10 0.09 0.14 0.25 0.28 0.29 0.31 0.32 0.26 0.18 0.11 0.07 0.05 0.05 0.05 0.09 0.12 0.15 0.11 0.09 0.07 0.04 0.04 0.03 0.03 0.04 0.08 0.12 0.11 0.13 0.13
0.00 0.00 0.00 0.00 0.01 0.01 0.01 0.07 0.17 0.18 0.12 0.08 0.08 0.08 0.16 0.31 0.32 0.27 0.27 0.30 0.29 0.24 0.16 0.10 0.07 0.04 0.04 0.04 0.03 0.05 0.04 0.02 0.03 0.05 0.06 0.10 0.12 0.13 0.16 0.20 0.22 0.22 0.24
0.00 0.00 0.00 0.00 0.01 0.01 0.01 0.05 0.09 0.12 0.09 0.04 0.02 0.02 0.04 0.11 0.16 0.16 0.14 0.14 0.15 0.15 0.11 0.07 0.03 0.01 0.00 0.00 0.00 0.01 0.01 0.00 0.01 0.02 0.05 0.13 0.19 0.20 0.25 0.27 0.24 0.25 0.30
0.00 0.00 0.00 0.00 0.00 0.01 0.01 0.01 0.01 0.02 0.02 0.01 0.00 0.00 0.00 0.00 0.01 0.02 0.02 0.02 0.03 0.03 0.02 0.01 0.00 0.00 0.00 0.00 0.00 0.00 0.00 0.01 0.01 0.01 0.03 0.07 0.12 0.17 0.23 0.27 0.26 0.25 0.28
0.00 0.00 0.00 0.00 0.00 0.00 0.00 0.00 0.01 0.01 0.00 0.00 0.00 0.00 0.00 0.00 0.00 0.00 0.00 0.00 0.00 0.00 0.00 0.00 0.00 0.00 0.00 0.00 0.00 0.00 0.00 0.01 0.01 0.01 0.02 0.04 0.08 0.13 0.15 0.19 0.22 0.25 0.31
0.00 0.00 0.00 0.00 0.00 0.00 0.00 0.00 0.01 0.01 0.01 0.00 0.01 0.01 0.00 0.00 0.00 0.00 0.00 0.00 0.00 0.00 0.00 0.00 0.00 0.00 0.00 0.00 0.00 0.00 0.01 0.01 0.01 0.01 0.02 0.03 0.06 0.10 0.13 0.15 0.15 0.17 0.20
0.00 0.00 0.00 0.00 0.00 0.00 0.00 0.00 0.01 0.02 0.01 0.01 0.01 0.01 0.00 0.00 0.00 0.00 0.00 0.00 0.00 0.00 0.00 0.00 0.00 0.00 0.00 0.00 0.01 0.01 0.01 0.01 0.01 0.01 0.02 0.04 0.07 0.08 0.09 0.11 0.14 0.14 0.19
0.00 0.00 0.00 0.00 0.00 0.00 0.00 0.01 0.01 0.01 0.01 0.01 0.01 0.01 0.01 0.01 0.00 0.00 0.00 0.00 0.00 0.00 0.00 0.00 0.00 0.00 0.00 0.00 0.00 0.01 0.01 0.01 0.01 0.01 0.01 0.02 0.04 0.08 0.11 0.14 0.14 0.11 0.14
0.00 0.00 0.00 0.00 0.00 0.00 0.00 0.02 0.02 0.01 0.01 0.01 0.01 0.01 0.01 0.01 0.01 0.00 0.00 0.00 0.00 0.00 0.00 0.00 0.00 0.00 0.00 0.00 0.00 0.00 0.00 0.00 0.00 0.00 0.01 0.01 0.02 0.05 0.07 0.06 0.05 0.06 0.07
0.00 0.00 0.00 0.01 0.01 0.00 0.01 0.02 0.03 0.03 0.03 0.02 0.01 0.02 0.03 0.03 0.02 0.01 0.00 0.00 0.00 0.00 0.00 0.00 0.00 0.00 0.00 0.00 0.00 0.00 0.00 0.00 0.00 0.00 0.00 0.00 0.00 0.00 0.00 0.00 0.00 0.00 0.01
0.00 0.00 0.01 0.01 0.01 0.01 0.01 0.03 0.05 0.05 0.05 0.03 0.03 0.03 0.05 0.08 0.08 0.04 0.01 0.01 0.00 0.00 0.00 0.00 0.00 0.00 0.00 0.00 0.00 0.00 0.00 0.00 0.00 0.00 0.00 0.00 0.00 0.00 0.00 0.00 0.00 0.00 0.00
0.00 0.00 0.01 0.02 0.02 0.01 0.02 0.03 0.04 0.05 0.05 0.04 0.04 0.03 0.03 0.04 0.05 0.05 0.04 0.02 0.01 0.00 0.00 0.00 0.00 0.00 0.00 0.00 0.00 0.00 0.00 0.00 0.00 0.00 0.00 0.00 0.00 0.00 0.00 0.00 0.00 0.00 0.00
0.00 0.01 0.02 0.02 0.02 0.02 0.02 0.04 0.06 0.08 0.06 0.03 0.02 0.02 0.02 0.01 0.02 0.03 0.06 0.05 0.03 0.02 0.01 0.01 0.01 0.01 0.00 0.00 0.00 0.00 0.00 0.00 0.00 0.00 0.00 0.00 0.00 0.00 0.00 0.00 0.00 0.00 0.00
0.00 0.01 0.03 0.04 0.03 0.03 0.03 0.04 0.05 0.08 0.06 0.03 0.02 0.01 0.02 0.02 0.01 0.04 0.07 0.09 0.07 0.03 0.04 0.03 0.02 0.01 0.01 0.00 0.00 0.00 0.00 0.00 0.00 0.00 0.00 0.00 0.00 0.00 0.00 0.00 0.00 0.00 0.00
0.01 0.01 0.03 0.03 0.05 0.08 0.06 0.04 0.04 0.04 0.06 0.06 0.06 0.04 0.03 0.03 0.02 0.02 0.03 0.04 0.04 0.02 0.02 0.02 0.02 0.03 0.03 0.02 0.00 0.00 0.00 0.00 0.00 0.00 0.00 0.00 0.00 0.00 0.00 0.00 0.00 0.00 0.00
0.01 0.02 0.03 0.04 0.05 0.09 0.09 0.04 0.03 0.03 0.04 0.09 0.14 0.14 0.11 0.08 0.04 0.03 0.03 0.04 0.03 0.02 0.02 0.02 0.02 0.02 0.03 0.02 0.01 0.00 0.00 0.00 0.00 0.00 0.00 0.00 0.00 0.00 0.00 0.00 0.00 0.00 0.00
0.00 0.01 0.02 0.03 0.03 0.04 0.07 0.06 0.03 0.03 0.03 0.05 0.06 0.08 0.11 0.15 0.13 0.10 0.09 0.09 0.09 0.08 0.09 0.10 0.08 0.06 0.04 0.02 0.01 0.00 0.00 0.00 0.00 0.00 0.00 0.01 0.00 0.00 0.00 0.00 0.00 0.00 0.00
0.00 0.00 0.01 0.01 0.02 0.03 0.03 0.03 0.04 0.05 0.05 0.04 0.05 0.07 0.09 0.10 0.10 0.09 0.09 0.10 0.11 0.10 0.11 0.11 0.10 0.08 0.04 0.02 0.01 0.01 0.00 0.00 0.00 0.00 0.00 0.00 0.00 0.00 0.00 0.00 0.00 0.00 0.00
MSLP
1011.65 1011.70 1011.74 1011.78 1011.84 1011.94 1012.10 1012.31 1012.58 1012.87 1013.17 1013.45 1013.70 1013.91 1014.07 1014.19 1014.29 1014.37 1014.45 1014.50 1014.55 1014.57 1014.57 1014.55 1014.51 1014.49 1014.48 1014.52 1014.59 1014.70 1014.82 1014.93 1014.99 1014.99 1014.91 1014.74 1014.50 1014.23 1013.95 1013.69 1013.49 1013.33 1013.22
1012.26 1012.29 1012.28 1012.25 1012.23 1012.24 1012.31 1012.44 1012.64 1012.87 1013.12 1013.35 1013.55 1013.70 1013.80 1013.85 1013.87 1013.88 1013.89 1013.91 1013.93 1013.95 1013.98 1014.00 1014.03 1014.07 1014.13 1014.23 1014.35 1014.50 1014.65 1014.78 1014.85 1014.86 1014.77 1014.60 1014.36 1014.07 1013.77 1013.49 1013.26 1013.07 1012.93
1012.85 1012.88 1012.85 1012.78 1012.70 1012.64 1012.62 1012.67 1012.79 1012.95 1013.12 1013.28 1013.41 1013.48 1013.50 1013.47 1013.41 1013.35 1013.30 1013.27 1013.28 1013.31 1013.37 1013.44 1013.53 1013.64 1013.76 1013.91 1014.08 1014.26 1014.43 1014.58 1014.66 1014.68 1014.60 1014.44 1014.21 1013.93 1013.64 1013.36 1013.11 1012.91 1012.74
1013.33 1013.39 1013.37 1013.28 1013.16 1013.05 1012.97 1012.95 1012.99 1013.07 1013.17 1013.25 1013.30 1013.29 1013.22 1013.12 1012.99 1012.87 1012.77 1012.71 1012.71 1012.75 1012.83 1012.95 1013.09 1013.25 1013.42 1013.60 1013.80 1013.99 1014.17 1014.32 1014.42 1014.45 1014.40 1014.27 1014.07 1013.83 1013.56 1013.30 1013.06 1012.85 1012.66
1013.66 1013.76 1013.76 1013.68 1013.55 1013.42 1013.30 1013.22 1013.20 1013.21 1013.24 1013.25 1013.22 1013.15 1013.02 1012.85 1012.67 1012.50 1012.37 1012.30 1012.29 1012.34 1012.45 1012.58 1012.75 1012.93 1013.12 1013.31 1013.50 1013.69 1013.87 1014.02 1014.12 1014.17 1014.15 1014.07 1013.92 1013.73 1013.51 1013.28 1013.06 1012.86 1012.67
1013.88 1014.01 1014.04 1013.98 1013.86 1013.71 1013.57 1013.47 1013.40 1013.36 1013.33 1013.28 1013.20 1013.07 1012.90 1012.69 1012.48 1012.30 1012.16 1012.08 1012.07 1012.13 1012.23 1012.38 1012.54 1012.71 1012.87 1013.04 1013.20 1013.36 1013.52 1013.65 1013.76 1013.83 1013.85 1013.82 1013.74 1013.61 1013.44 1013.26 1013.08 1012.89 1012.71
1014.02 1014.17 1014.22 1014.18 1014.07 1013.93 1013.79 1013.67 1013.57 1013.50 1013.43 1013.35 1013.23 1013.07 1012.87 1012.66 1012.45 1012.26 1012.13 1012.06 1012.05 1012.10 1012.20 1012.32 1012.45 1012.57 1012.69 1012.80 1012.90 1013.01 1013.13 1013.24 1013.34 1013.43 1013.49 1013.51 1013.49 1013.43 1013.32 1013.20 1013.05 1012.89 1012.72
1014.17 1014.32 1014.37 1014.34 1014.24 1014.11 1013.97 1013.84 1013.73 1013.64 1013.55 1013.44 1013.30 1013.13 1012.94 1012.73 1012.53 1012.37 1012.25 1012.19 1012.19 1012.23 1012.30 1012.38 1012.46 1012.51 1012.56 1012.59 1012.62 1012.67 1012.73 1012.81 1012.90 1013.00 1013.09 1013.15 1013.18 1013.17 1013.13 1013.04 1012.93 1012.80 1012.65
1014.39 1014.51 1014.54 1014.50 1014.40 1014.27 1014.14 1014.01 1013.89 1013.79 1013.68 1013.56 1013.42 1013.26 1013.07 1012.89 1012.72 1012.58 1012.49 1012.45 1012.45 1012.47 1012.51 1012.54 1012.55 1012.53 1012.49 1012.44 1012.40 1012.37 1012.38 1012.42 1012.49 1012.59 1012.69 1012.78 1012.84 1012.87 1012.85 1012.80 1012.72 1012.62 1012.49
1014.71 1014.78 1014.77 1014.70 1014.59 1014.45 1014.31 1014.18 1014.06 1013.95 1013.84 1013.72 1013.58 1013.43 1013.26 1013.10 1012.96 1012.85 1012.79 1012.76 1012.76 1012.78 1012.78 1012.76 1012.71 1012.62 1012.51 1012.38 1012.26 1012.18 1012.13 1012.14 1012.19 1012.26 1012.36 1012.45 1012.51 1012.55 1012.55 1012.51 1012.44 1012.36 1012.26
1015.14 1015.14 1015.07 1014.96 1014.81 1014.66 1014.51 1014.37 1014.25 1014.14 1014.03 1013.91 1013.78 1013.63 1013.49 1013.35 1013.24 1013.16 1013.11 1013.10 1013.10 1013.10 1013.08 1013.03 1012.93 1012.79 1012.61 1012.44 1012.27 1012.14 1012.06 1012.03 1012.05 1012.10 1012.17 1012.23 1012.28 1012.29 1012.27 1012.22 1012.15 1012.08 1012.00
1015.61 1015.54 1015.41 1015.24 1015.06 1014.88 1014.72 1014.58 1014.46 1014.35 1014.25 1014.13 1014.01 1013.87 1013.74 1013.62 1013.53 1013.46 1013.43 1013.43 1013.43 1013.42 1013.39 1013.31 1013.18 1013.02 1012.82 1012.62 1012.44 1012.29 1012.19 1012.13 1012.12 1012.14 1012.17 1012.18 1012.18 1012.14 1012.08 1012.00 1011.91 1011.83 1011.78
1016.06 1015.92 1015.74 1015.52 1015.30 1015.10 1014.93 1014.79 1014.68 1014.58 1014.48 1014.38 1014.26 1014.14 1014.02 1013.91 1013.82 1013.76 1013.74 1013.73 1013.73 1013.72 1013.68 1013.60 1013.47 1013.30 1013.11 1012.92 1012.74 1012.60 1012.50 1012.43 1012.40 1012.39 1012.36 1012.32 1012.25 1012.15 1012.03 1011.90 1011.78 1011.69 1011.64
1016.42 1016.24 1016.00 1015.75 1015.50 1015.29 1015.12 1014.99 1014.89 1014.81 1014.74 1014.65 1014.54 1014.43 1014.31 1014.20 1014.11 1014.05 1014.02 1014.01 1014.00 1013.99 1013.95 1013.87 1013.76 1013.61 1013.45 1013.29 1013.14 1013.03 1012.94 1012.88 1012.84 1012.80 1012.73 1012.63 1012.49 1012.32 1012.13 1011.94 1011.79 1011.67 1011.62
1016.64 1016.43 1016.16 1015.89 1015.64 1015.43 1015.27 1015.16 1015.10 1015.05 1015.00 1014.93 1014.84 1014.74 1014.62 1014.51 1014.41 1014.34 1014.29 1014.26 1014.24 1014.22 1014.18 1014.12 1014.03 1013.91 1013.79 1013.68 1013.58 1013.50 1013.45 1013.41 1013.36 1013.30 1013.20 1013.05 1012.86 1012.62 1012.37 1012.13 1011.93 1011.80 1011.74
1016.71 1016.48 1016.21 1015.94 1015.69 1015.51 1015.38 1015.31 1015.29 1015.28 1015.26 1015.23 1015.16 1015.07 1014.96 1014.84 1014.72 1014.63 1014.56 1014.51 1014.47 1014.44 1014.40 1014.34 1014.27 1014.19 1014.11 1014.04 1013.99 1013.95 1013.94 1013.92 1013.89 1013.83 1013.71 1013.53 1013.30 1013.02 1012.73 1012.45 1012.21 1012.05 1011.98
1016.62 1016.40 1016.15 1015.90 1015.70 1015.55 1015.47 1015.45 1015.47 1015.51 1015.53 1015.53 1015.49 1015.41 1015.31 1015.18 1015.06 1014.95 1014.85 1014.78 1014.72 1014.66 1014.61 1014.55 1014.50 1014.44 1014.39 1014.35 1014.34 1014.34 1014.36 1014.38 1014.37 1014.31 1014.20 1014.02 1013.77 1013.47 1013.16 1012.85 1012.60 1012.41 1012.32
1016.42 1016.24 1016.02 1015.82 1015.67 1015.58 1015.55 1015.59 1015.66 1015.75 1015.82 1015.85 1015.84 1015.77 1015.68 1015.55 1015.42 1015.29 1015.18 1015.08 1015.00 1014.92 1014.86 1014.80 1014.74 1014.69 1014.65 1014.63 1014.64 1014.67 1014.71 1014.75 1014.76 1014.73 1014.63 1014.46 1014.23 1013.94 1013.63 1013.32 1013.05 1012.85 1012.74
1016.15 1016.02 1015.87 1015.74 1015.65 1015.62 1015.66 1015.75 1015.87 1016.00 1016.10 1016.17 1016.18 1016.14 1016.05 1015.93 1015.80 1015.67 1015.54 1015.43 1015.34 1015.25 1015.18 1015.10 1015.04 1014.98 1014.95 1014.93 1014.94 1014.97 1015.02 1015.07 1015.10 1015.08 1015.01 1014.87 1014.67 1014.41 1014.12 1013.82 1013.56 1013.34 1013.20
1015.87 1015.81 1015.73 1015.67 1015.65 1015.69 1015.79 1015.93 1016.09 1016.26 1016.39 1016.47 1016.50 1016.48 1016.41 1016.30 1016.18 1016.06 1015.94 1015.84 1015.75 1015.67 1015.59 1015.51 1015.44 1015.38 1015.33 1015.30 1015.29 1015.31 1015.34 1015.38 1015.41 1015.41 1015.36 1015.26 1015.09 1014.87 1014.61 1014.33 1014.07 1013.85 1013.68
1015.62 1015.63 1015.63 1015.65 1015.70 1015.80 1015.95 1016.13 1016.32 1016.50 1016.64 1016.74 1016.78 1016.78 1016.72 1016.64 1016.54 1016.44 1016.35 1016.28 1016.21 1016.15 1016.09 1016.03 1015.96 1015.89 1015.82 1015.77 1015.73 1015.71 1015.71 1015.73 1015.74 1015.74 1015.70 1015.61 1015.48 1015.29 1015.07 1014.82 1014.57 1014.33 1014.13
1015.41 1015.49 1015.57 1015.66 1015.78 1015.93 1016.11 1016.31 1016.52 1016.70 1016.84 1016.94 1016.99 1016.98 1016.95 1016.89 1016.83 1016.77 1016.73 1016.70 1016.69 1016.67 1016.65 1016.62 1016.57 1016.50 1016.42 1016.34 1016.26 1016.20 1016.15 1016.12 1016.10 1016.07 1016.02 1015.94 1015.82 1015.66 1015.46 1015.23 1014.99 1014.75 1014.52
1015.24 1015.39 1015.53 1015.69 1015.85 1016.04 1016.25 1016.46 1016.66 1016.82 1016.95 1017.04 1017.08 1017.08 1017.06 1017.03 1017.01 1017.00 1017.02 1017.06 1017.11 1017.16 1017.20 1017.22 1017.20 1017.15 1017.06 1016.96 1016.85 1016.73 1016.63 1016.54 1016.46 1016.39 1016.31 1016.22 1016.10 1015.95 1015.76 1015.54 1015.30 1015.05 1014.80
1015.09 1015.30 1015.50 1015.69 1015.90 1016.11 1016.32 1016.52 1016.71 1016.85 1016.96 1017.02 1017.04 1017.04 1017.03 1017.03 1017.04 1017.09 1017.17 1017.28 1017.41 1017.54 1017.65 1017.73 1017.76 1017.73 1017.66 1017.55 1017.40 1017.24 1017.07 1016.92 1016.78 1016.65 1016.52 1016.40 1016.26 1016.10 1015.92 1015.70 1015.46 1015.20 1014.93
1014.95 1015.19 1015.42 1015.65 1015.88 1016.10 1016.31 1016.49 1016.65 1016.77 1016.84 1016.88 1016.88 1016.87 1016.87 1016.88 1016.93 1017.02 1017.16 1017.34 1017.54 1017.74 1017.93 1018.07 1018.15 1018.17 1018.11 1017.99 1017.83 1017.62 1017.41 1017.19 1016.99 1016.80 1016.62 1016.46 1016.29 1016.12 1015.93 1015.71 1015.47 1015.20 1014.92
1014.78 1015.04 1015.29 1015.53 1015.76 1015.98 1016.18 1016.35 1016.48 1016.57 1016.62 1016.63 1016.62 1016.60 1016.59 1016.61 1016.68 1016.80 1016.99 1017.21 1017.47 1017.73 1017.98 1018.18 1018.31 1018.36 1018.33 1018.22 1018.05 1017.82 1017.57 1017.30 1017.05 1016.81 1016.59 1016.39 1016.20 1016.01 1015.82 1015.60 1015.36 1015.09 1014.80
Thickness
5785 5788 5789 5787 5784 5780 5778 5776 5774 5771 5766 5761 5757 5754 5752 5751 5751 5747 5743 5742 5745 5748 5747 5750 5751 5752 5754 5754 5756 5755 5752 5750 5751 5750 5752 5757 5758 5755 5752 5753 5750 5749 5745
5773 5774 5773 5772 5770 5768 5767 5766 5766 5764 5761 5759 5756 5754 5752 5752 5753 5755 5751 5747 5746 5748 5750 5749 5749 5750 5749 5749 5748 5747 5745 5746 5747 5743 5743 5745 5749 5747 5751 5750 5748 5744 5744
5760 5760 5759 5757 5756 5755 5755 5756 5755 5754 5753 5751 5749 5747 5744 5745 5746 5748 5750 5749 5747 5748 5748 5749 5747 5747 5746 5745 5743 5742 5740 5739 5741 5741 5737 5735 5736 5740 5747 5746 5746 5742 5742
5744 5746 5745 5742 5742 5742 5744 5744 5743 5741 5740 5739 5737 5735 5734 5735 5741 5744 5746 5743 5742 5743 5743 5742 5742 5742 5741 5739 5739 5743 5739 5736 5733 5734 5734 5735 5736 5729 5733 5741 5744 5743 5739
5728 5729 5731 5730 5730 5731 5731 5730 5730 5730 5730 5728 5726 5725 5728 5730 5733 5737 5738 5735 5733 5733 5733 5733 5736 5737 5736 5735 5735 5736 5734 5733 5731 5730 5730 5731 5730 5729 5724 5725 5731 5738 5742
5719 5718 5720 5721 5721 5722 5722 5723 5724 5723 5722 5720 5719 5717 5719 5722 5725 5728 5729 5726 5723 5720 5721 5724 5728 5731 5731 5731 5730 5729 5728 5728 5728 5727 5728 5727 5728 5727 5726 5721 5721 5727 5734
5709 5708 5708 5710 5712 5714 5716 5717 5717 5715 5714 5712 5712 5710 5711 5713 5717 5721 5721 5718 5712 5708 5708 5714 5719 5724 5726 5725 5725 5723 5723 5723 5721 5721 5723 5726 5727 5727 5725 5720 5719 5721 5727
5697 5697 5698 5698 5699 5702 5705 5707 5707 5705 5704 5702 5700 5699 5701 5703 5705 5709 5711 5709 5704 5700 5700 5705 5712 5717 5719 5720 5721 5720 5718 5717 5716 5717 5718 5719 5722 5721 5719 5716 5713 5708 5712
5681 5684 5686 5686 5685 5686 5689 5693 5694 5694 5692 5690 5687 5685 5687 5690 5693 5696 5698 5696 5693 5692 5694 5699 5704 5707 5710 5712 5713 5713 5712 5712 5711 5714 5715 5713 5717 5715 5714 5712 5708 5700 5695
5667 5671 5674 5674 5674 5675 5677 5679 5680 5681 5681 5681 5678 5676 5676 5679 5682 5683 5683 5683 5682 5684 5688 5691 5694 5697 5699 5702 5704 5705 5705 5705 5706 5707 5707 5706 5708 5707 5706 5704 5703 5700 5694
5656 5660 5661 5663 5664 5664 5666 5668 5671 5672 5672 5672 5671 5671 5671 5672 5673 5672 5673 5674 5676 5677 5679 5680 5683 5686 5689 5692 5694 5697 5697 5697 5699 5701 5702 5701 5701 5699 5699 5698 5698 5697 5694
5646 5647 5648 5650 5652 5653 5655 5657 5660 5663 5664 5666 5666 5666 5667 5667 5667 5666 5666 5667 5668 5669 5670 5672 5675 5679 5682 5685 5686 5687 5689 5690 5690 5693 5694 5694 5695 5695 5694 5693 5694 5693 5693
5632 5634 5635 5637 5640 5643 5646 5649 5650 5653 5655 5658 5661 5662 5662 5661 5660 5660 5660 5661 5661 5662 5664 5667 5670 5674 5676 5678 5679 5679 5680 5681 5681 5682 5684 5685 5687 5688 5689 5688 5688 5688 5690
5620 5621 5623 5626 5629 5633 5637 5641 5644 5646 5647 5649 5651 5653 5654 5655 5654 5653 5653 5654 5655 5657 5659 5662 5665 5667 5669 5670 5671 5671 5671 5671 5670 5670 5671 5673 5676 5679 5681 5681 5681 5682 5683
5611 5612 5615 5617 5621 5626 5629 5632 5635 5637 5638 5639 5640 5642 5645 5646 5646 5645 5645 5646 5647 5649 5650 5652 5654 5656 5657 5656 5657 5660 5660 5660 5659 5658 5658 5659 5661 5663 5668 5671 5672 5673 5675
5606 5609 5611 5613 5616 5619 5623 5624 5624 5625 5626 5627 5628 5630 5633 5635 5635 5635 5635 5636 5637 5637 5638 5639 5641 5642 5642 5636 5637 5641 5646 5646 5647 5647 5647 5647 5649 5651 5654 5655 5657 5659 5663
5603 5605 5606 5608 5610 5614 5616 5615 5613 5614 5614 5614 5615 5617 5619 5620 5620 5621 5621 5622 5623 5624 5625 5626 5626 5625 5621 5620 5621 5624 5631 5632 5632 5634 5637 5638 5638 5642 5646 5647 5647 5648 5648
5596 5598 5600 5601 5603 5606 5608 5607 5605 5604 5603 5602 5601 5601 5600 5599 5599 5601 5602 5605 5608 5609 5610 5611 5611 5610 5606 5604 5607 5611 5616 5618 5619 5622 5625 5627 5628 5629 5634 5640 5642 5641 5640
5588 5590 5593 5595 5595 5598 5600 5599 5597 5595 5593 5591 5589 5588 5587 5585 5583 5584 5585 5587 5591 5593 5595 5596 5597 5596 5592 5590 5593 5599 5606 5606 5606 5608 5608 5612 5614 5612 5618 5629 5630 5629 5629
5585 5586 5587 5587 5588 5589 5590 5590 5588 5586 5583 5580 5578 5577 5576 5575 5573 5572 5573 5574 5576 5578 5581 5583 5584 5584 5581 5578 5581 5587 5597 5595 5596 5595 5597 5594 5597 5599 5603 5612 5615 5614 5615
5581 5581 5581 5580 5579 5579 5578 5578 5576 5572 5569 5567 5566 5565 5566 5567 5567 5566 5566 5566 5568 5568 5568 5571 5573 5574 5570 5567 5569 5573 5581 5581 5582 5584 5587 5586 5583 5586 5590 5593 5597 5595 5597
5577 5577 5575 5572 5570 5569 5567 5565 5561 5558 5556 5555 5554 5555 5556 5560 5563 5564 5563 5562 5561 5560 5559 5561 5563 5566 5564 5558 5557 5560 5564 5566 5569 5570 5572 5573 5571 5572 5575 5580 5580 5583 5587
5572 5571 5569 5566 5562 5561 5559 5558 5553 5550 5548 5546 5545 5546 5548 5551 5553 5555 5556 5556 5554 5552 5552 5554 5554 5554 5555 5552 5548 5549 5550 5552 5555 5556 5553 5555 5557 5560 5565 5565 5569 5574 5582
5567 5565 5563 5560 5556 5554 5552 5551 5548 5546 5543 5541 5540 5539 5539 5540 5541 5542 5543 5544 5544 5542 5540 5540 5541 5542 5541 5540 5539 5540 5540 5539 5543 5544 5544 5544 5546 5548 5551 5556 5562 5566 5568
5562 5560 5557 5554 5551 5549 5547 5546 5546 5545 5543 5541 5539 5537 5536 5534 5533 5532 5531 5531 5529 5527 5526 5525 5524 5524 5524 5522 5518 5521 5525 5526 5527 5530 5534 5534 5537 5541 5545 5549 5551 5553 5556
5560 5557 5554 5552 5549 5546 5545 5543 5542 5542 5541 5542 5541 5538 5536 5534 5532 5529 5526 5521 5520 5518 5517 5515 5515 5515 5513 5512 5511 5511 5512 5514 5516 5520 5524 5525 5527 5530 5533 5536 5539 5542 5544